Location: Fornova de Taro
(44.7000°N, 10.1000°E)
Time: 21:56:56
(UTC+00:00)

Resurs 1-4 Rocket - Pass Details

Date: 26 May 2022
Orbit: 800 x 813 km, 98.7° (Epoch: 03 July)

Event Time Altitude Azimuth Distance (km) Brightness Sun altitude
Rises 01:21:50 0° 10° (N) 3,321 6.6 -18.3°
Reaches altitude 10° 01:24:12 10° 7° (N) 2,388 5.6 -18.1°
Maximum altitude 01:29:23 62° 288° (WNW) 906 2.2 -17.6°
Enters shadow 01:31:57 30° 219° (SW) 1,422 2.8 -17.3°
